�N����,����,�~����,�C��,���x,�C��,����,���ϕ���,�ő�u�ԕ���,�ő厞����,���˗�,�I�_���x,�n�����x,�ő啗���N��,DTYPE
"18/08/20","00:10",0.0,20.1,77.5,1007.4,295.2,1.2,2.4,312.4,0.00,16.1,24.8,"00:02:24",1
"18/08/20","00:20",0.0,20.1,77.3,1007.4,307.0,1.1,1.4,322.1,0.00,16.0,24.6,"00:10:32",1
"18/08/20","00:30",0.0,20.0,77.9,1007.4,317.9,0.8,1.8,328.3,0.00,16.1,24.7,"00:20:02",1
"18/08/20","00:40",0.0,19.8,78.4,1007.4,291.1,0.6,1.2,303.0,0.00,16.0,24.5,"00:30:08",1
"18/08/20","00:50",0.0,19.9,78.8,1007.4,277.3,1.0,1.7,270.9,0.00,16.2,24.4,"00:43:04",1
"18/08/20","01:00",0.0,20.0,78.0,1007.4,315.6,1.2,1.9,336.3,0.00,16.1,24.3,"00:54:56",1
"18/08/20","01:10",0.0,19.9,77.7,1006.7,310.2,1.0,1.7,306.3,0.00,15.9,24.3,"01:05:04",1
"18/08/20","01:20",0.0,19.6,79.7,1006.9,302.3,0.8,1.2,316.6,0.00,16.0,24.4,"01:11:12",1
"18/08/20","01:30",0.0,19.4,81.4,1006.7,309.4,0.7,1.4,298.0,0.00,16.2,24.2,"01:26:48",1
"18/08/20","01:40",0.0,19.1,82.1,1006.7,295.0,0.6,1.0,303.7,0.00,16.0,24.2,"01:30:24",1
"18/08/20","01:50",0.0,19.0,83.5,1006.7,292.6,0.8,1.1,309.1,0.00,16.2,24.0,"01:44:24",1
"18/08/20","02:00",0.0,19.0,83.1,1006.4,306.8,1.0,1.2,320.2,0.00,16.1,24.0,"01:54:08",1
"18/08/20","02:10",0.0,18.9,84.8,1006.4,287.6,0.8,1.1,314.0,0.00,16.3,24.0,"02:09:52",1
"18/08/20","02:20",0.0,19.1,85.4,1006.7,315.0,1.0,1.6,341.1,0.00,16.6,23.8,"02:19:36",1
"18/08/20","02:30",0.0,19.1,85.5,1006.4,305.1,0.8,1.3,315.8,0.00,16.7,23.9,"02:24:56",1
"18/08/20","02:40",0.0,18.8,86.4,1006.7,298.2,0.8,1.4,320.9,0.00,16.5,23.9,"02:38:08",1
"18/08/20","02:50",0.0,18.6,87.5,1006.2,304.6,1.0,1.3,312.3,0.00,16.5,23.9,"02:41:52",1
"18/08/20","03:00",0.0,18.6,87.9,1006.4,298.5,0.8,1.2,315.5,0.00,16.6,23.7,"02:51:52",1
"18/08/20","03:10",0.0,18.7,87.9,1006.2,290.8,1.0,1.2,320.5,0.00,16.7,23.7,"03:03:28",1
"18/08/20","03:20",0.0,19.0,87.9,1006.4,308.3,1.0,1.4,308.1,0.00,17.0,23.6,"03:12:08",1
"18/08/20","03:30",0.0,18.9,87.1,1006.4,289.5,0.7,1.0,319.5,0.00,16.7,23.5,"03:26:16",1
"18/08/20","03:40",0.0,18.9,88.4,1006.2,306.3,1.0,1.4,321.2,0.00,17.0,23.6,"03:34:48",1
"18/08/20","03:50",0.0,19.0,88.1,1006.2,312.1,0.7,1.2,326.1,0.00,17.0,23.5,"03:40:08",1
"18/08/20","04:00",0.0,19.0,88.7,1006.2,299.3,0.8,1.4,320.3,0.00,17.1,23.5,"03:57:20",1
"18/08/20","04:10",0.0,19.0,89.0,1006.4,295.9,0.7,1.2,322.6,0.00,17.2,23.5,"04:02:56",1
"18/08/20","04:20",0.0,19.0,88.8,1006.0,288.1,0.7,1.3,329.4,0.00,17.2,23.4,"04:19:12",1
"18/08/20","04:30",0.0,19.1,89.1,1006.0,299.1,0.7,1.4,318.7,0.00,17.3,23.4,"04:26:56",1
"18/08/20","04:40",0.0,19.3,89.3,1006.2,290.9,0.8,1.4,324.5,0.00,17.5,23.4,"04:30:02",1
"18/08/20","04:50",0.0,19.5,88.4,1006.2,309.3,0.8,1.7,309.2,0.00,17.6,23.5,"04:41:28",1
"18/08/20","05:00",0.0,19.6,88.3,1006.2,310.5,0.8,1.6,332.7,0.00,17.7,23.5,"04:51:12",1
"18/08/20","05:10",0.0,19.6,88.6,1006.4,316.9,1.0,1.4,321.1,0.00,17.7,23.2,"05:09:12",1
"18/08/20","05:20",0.0,19.5,88.9,1006.4,305.5,0.7,1.4,324.4,0.00,17.7,23.2,"05:10:32",1
"18/08/20","05:30",0.0,19.6,89.3,1006.0,314.0,1.1,1.9,318.0,0.00,17.8,23.2,"05:22:40",1
"18/08/20","05:40",0.0,19.5,89.5,1006.4,295.3,0.6,1.2,310.6,0.00,17.8,23.3,"05:37:44",1
"18/08/20","05:50",0.0,19.6,89.1,1006.0,308.4,1.0,1.7,320.1,0.00,17.8,23.3,"05:46:56",1
"18/08/20","06:00",0.0,19.8,88.8,1006.7,304.1,1.0,1.4,316.6,0.00,17.9,23.2,"05:56:16",1
"18/08/20","06:10",0.0,20.1,88.1,1006.2,310.5,1.2,1.8,327.0,0.00,18.1,23.4,"06:06:00",1
"18/08/20","06:20",0.0,20.8,86.2,1006.4,328.9,1.2,2.7,338.4,0.00,18.4,23.2,"06:11:44",1
"18/08/20","06:30",0.0,21.0,85.8,1006.0,328.4,1.3,1.9,334.9,0.01,18.6,23.4,"06:29:04",1
"18/08/20","06:40",0.0,21.5,84.6,1006.7,304.0,1.0,2.2,340.2,0.01,18.8,23.2,"06:30:16",1
"18/08/20","06:50",0.0,22.3,82.8,1006.7,320.8,0.7,1.2,332.7,0.03,19.3,23.4,"06:46:00",1
"18/08/20","07:00",0.0,23.4,75.4,1006.7,330.9,1.1,1.8,339.0,0.04,18.8,23.5,"06:53:12",1
"18/08/20","07:10",0.0,23.9,73.2,1006.2,335.2,1.1,1.7,335.2,0.06,18.9,23.6,"07:05:20",1
"18/08/20","07:20",0.0,24.4,72.6,1006.2,343.5,1.0,1.9,341.8,0.07,19.2,23.6,"07:12:00",1
"18/08/20","07:30",0.0,25.0,68.1,1005.7,315.4,0.5,1.2,354.9,0.10,18.7,23.8,"07:21:28",1
"18/08/20","07:40",0.0,25.3,63.3,1006.0,71.3,0.3,1.1,19.8,0.13,17.9,24.2,"07:32:40",1
"18/08/20","07:50",0.0,26.1,58.5,1005.5,306.2,0.3,1.7,224.4,0.17,17.4,24.0,"07:49:36",1
"18/08/20","08:00",0.0,25.9,58.0,1005.7,66.9,0.5,1.9,84.6,0.15,17.0,24.3,"07:59:04",1
"18/08/20","08:10",0.0,26.1,58.6,1005.5,142.2,0.8,1.9,334.4,0.16,17.4,24.3,"08:02:00",1
"18/08/20","08:20",0.0,26.5,58.8,1004.5,144.4,1.1,3.6,140.1,0.20,17.8,24.5,"08:14:56",1
"18/08/20","08:30",0.0,27.3,56.3,1004.5,135.9,1.1,2.2,185.1,0.25,17.9,24.7,"08:23:04",1
"18/08/20","08:40",0.0,27.3,57.3,1004.8,129.7,1.2,2.5,166.4,0.26,18.2,25.0,"08:34:00",1
"18/08/20","08:50",0.0,27.3,54.7,1005.0,118.5,1.1,2.8,108.4,0.24,17.4,25.3,"08:49:54",1
"18/08/20","09:00",0.0,27.7,56.0,1005.0,113.4,1.0,2.9,110.7,0.30,18.2,25.4,"08:52:34",1
"18/08/20","09:10",0.0,28.0,56.2,1005.0,140.1,1.3,2.9,140.4,0.34,18.5,25.9,"09:03:16",1
"18/08/20","09:20",0.0,28.0,54.8,1005.2,149.0,1.3,2.7,129.2,0.35,18.1,25.9,"09:17:34",1
"18/08/20","09:30",0.0,28.7,54.1,1005.5,124.2,1.5,2.8,127.7,0.37,18.5,26.3,"09:22:40",1
"18/08/20","09:40",0.0,28.7,55.6,1005.7,118.0,1.5,3.4,160.4,0.39,19.0,26.7,"09:36:56",1
"18/08/20","09:50",0.0,28.9,54.5,1006.0,120.8,1.5,3.1,137.4,0.39,18.9,26.8,"09:43:12",1
"18/08/20","10:00",0.0,29.2,52.8,1006.2,121.3,1.2,3.1,97.1,0.38,18.6,27.0,"09:53:04",1
"18/08/20","10:10",0.0,28.8,55.5,1006.0,106.6,1.5,3.5,143.5,0.31,19.0,27.2,"10:07:12",1
"18/08/20","10:20",0.0,29.9,54.8,1006.0,108.6,1.1,3.9,92.8,0.47,19.9,27.5,"10:18:16",1
"18/08/20","10:30",0.0,30.1,54.9,1006.4,87.7,1.1,2.6,74.7,0.48,20.1,27.9,"10:23:52",1
"18/08/20","10:40",0.0,29.4,55.0,1006.4,98.7,1.5,3.7,117.3,0.37,19.5,28.1,"10:36:40",1
"18/08/20","10:50",0.0,29.1,56.6,1005.7,118.4,1.3,3.6,138.8,0.28,19.6,28.2,"10:43:28",1
"18/08/20","11:00",0.0,29.1,57.2,1005.5,100.9,1.3,2.8,113.5,0.27,19.8,28.2,"10:56:56",1
"18/08/20","11:10",0.0,29.5,57.4,1005.2,88.6,1.2,3.5,116.4,0.22,20.2,28.5,"11:00:48",1
"18/08/20","11:20",0.0,29.5,59.3,1005.5,117.2,1.5,3.4,116.0,0.30,20.8,28.6,"11:12:32",1
"18/08/20","11:30",0.0,29.5,58.9,1004.8,111.3,1.3,3.1,122.4,0.31,20.7,28.6,"11:27:12",1
"18/08/20","11:40",0.0,29.7,60.5,1004.8,106.2,1.5,2.8,121.7,0.30,21.3,28.7,"11:32:32",1
"18/08/20","11:50",0.0,29.0,61.9,1004.8,114.0,1.6,3.4,110.2,0.30,21.0,28.9,"11:42:32",1
"18/08/20","12:00",0.0,28.9,62.5,1004.8,93.4,1.3,2.8,58.7,0.22,21.1,29.0,"11:59:20",1
"18/08/20","12:10",0.0,29.1,63.2,1004.3,119.3,1.5,3.4,120.0,0.29,21.4,29.0,"12:03:12",1
"18/08/20","12:20",0.0,29.3,62.7,1004.3,93.6,1.3,2.7,91.1,0.28,21.5,28.9,"12:12:32",1
"18/08/20","12:30",0.0,29.7,61.9,1004.1,94.2,1.3,3.5,123.2,0.32,21.7,29.1,"12:24:40",1
"18/08/20","12:40",0.0,29.1,62.7,1004.1,94.1,1.5,3.5,106.3,0.28,21.3,29.2,"12:37:04",1
"18/08/20","12:50",0.0,29.2,64.7,1003.8,94.2,1.0,3.4,135.6,0.17,21.9,29.2,"12:48:40",1
"18/08/20","13:00",0.0,28.9,65.2,1003.8,91.3,1.1,2.5,137.6,0.21,21.8,29.1,"12:50:48",1
"18/08/20","13:10",0.0,29.4,65.1,1003.8,95.1,1.2,2.9,150.2,0.22,22.2,29.2,"13:01:20",1
"18/08/20","13:20",0.0,29.6,63.5,1003.8,103.1,1.3,3.3,87.3,0.31,22.0,29.4,"13:10:02",1
"18/08/20","13:30",0.0,29.8,64.8,1003.6,87.4,1.1,2.6,24.9,0.26,22.5,29.3,"13:24:32",1
"18/08/20","13:40",0.0,29.8,63.4,1003.4,82.0,1.5,3.4,134.9,0.38,22.1,29.6,"13:37:12",1
"18/08/20","13:50",0.0,29.2,65.9,1003.6,94.7,1.2,2.8,81.4,0.18,22.2,29.6,"13:45:52",1
"18/08/20","14:00",0.0,29.3,65.3,1003.1,75.7,1.1,2.9,128.2,0.16,22.2,29.4,"13:56:40",1
"18/08/20","14:10",0.0,30.0,65.1,1003.4,84.5,1.0,2.9,95.0,0.16,22.8,29.6,"14:00:56",1
"18/08/20","14:20",0.0,29.6,64.8,1002.9,82.7,1.3,3.7,113.3,0.17,22.3,29.4,"14:15:20",1
"18/08/20","14:30",0.0,29.6,65.4,1002.9,89.2,1.1,2.7,115.7,0.12,22.5,29.6,"14:21:52",1
"18/08/20","14:40",0.0,29.7,64.7,1002.6,91.0,1.2,3.4,81.6,0.14,22.4,29.4,"14:30:40",1
"18/08/20","14:50",0.0,31.4,59.7,1002.9,91.7,1.2,3.6,121.5,0.39,22.7,29.4,"14:41:12",1
"18/08/20","15:00",0.0,30.1,63.8,1002.9,86.6,1.2,2.4,75.6,0.14,22.5,29.7,"14:54:40",1
"18/08/20","15:10",0.0,29.8,64.4,1002.9,85.8,1.3,2.7,74.4,0.10,22.4,29.4,"15:00:56",1
"18/08/20","15:20",0.0,30.7,63.9,1002.6,104.0,1.5,3.2,138.1,0.18,23.1,29.5,"15:15:36",1
"18/08/20","15:30",0.0,30.3,63.2,1002.6,82.8,1.2,2.9,89.8,0.17,22.6,29.5,"15:23:36",1
"18/08/20","15:40",0.0,30.0,64.4,1002.4,84.5,1.5,4.0,118.4,0.11,22.6,29.6,"15:33:36",1
"18/08/20","15:50",0.0,30.0,64.4,1002.2,101.7,1.3,3.4,100.3,0.09,22.6,29.6,"15:43:44",1
"18/08/20","16:00",0.0,30.1,64.0,1002.2,101.3,1.3,3.1,71.5,0.07,22.6,29.3,"15:51:52",1
"18/08/20","16:10",0.0,30.1,64.0,1002.2,110.1,1.3,3.7,117.3,0.08,22.6,29.2,"16:05:52",1
"18/08/20","16:20",0.0,30.1,64.3,1001.7,96.0,1.3,2.8,114.1,0.07,22.7,29.3,"16:16:24",1
"18/08/20","16:30",0.0,29.9,64.2,1001.9,97.8,1.3,2.8,127.4,0.08,22.4,29.3,"16:27:28",1
"18/08/20","16:40",0.0,30.0,64.8,1001.9,90.8,1.1,2.8,93.9,0.09,22.7,29.0,"16:36:48",1
"18/08/20","16:50",0.0,30.3,63.2,1001.7,82.2,1.2,2.1,52.4,0.12,22.6,29.3,"16:44:32",1
"18/08/20","17:00",0.0,30.2,64.0,1001.9,81.9,1.3,2.9,71.3,0.08,22.7,29.1,"16:50:40",1
"18/08/20","17:10",0.0,30.2,64.9,1001.5,81.6,1.5,3.1,85.9,0.09,22.9,29.0,"17:03:28",1
"18/08/20","17:20",0.0,30.3,64.1,1001.7,87.0,1.5,3.6,92.8,0.11,22.8,29.2,"17:10:56",1
"18/08/20","17:30",0.0,30.0,64.8,1001.7,78.8,1.6,4.0,119.3,0.07,22.7,29.1,"17:28:56",1
"18/08/20","17:40",0.0,29.8,66.0,1001.9,95.0,1.2,2.6,75.7,0.05,22.8,29.0,"17:30:32",1
"18/08/20","17:50",0.0,29.4,66.9,1001.5,95.5,1.5,3.3,97.5,0.03,22.6,28.9,"17:43:36",1
"18/08/20","18:00",0.0,29.3,67.9,1001.2,91.1,1.6,3.7,76.9,0.03,22.8,28.8,"17:53:12",1
"18/08/20","18:10",0.0,29.3,68.1,1001.5,106.4,1.3,2.6,128.4,0.03,22.8,28.7,"18:06:48",1
"18/08/20","18:20",0.0,29.3,68.0,1001.5,91.7,1.2,2.4,96.6,0.02,22.8,28.7,"18:14:56",1
"18/08/20","18:30",0.0,29.1,68.5,1001.5,90.7,1.2,2.9,129.9,0.00,22.8,28.5,"18:21:44",1
"18/08/20","18:40",0.0,28.9,69.4,1001.2,95.3,1.1,2.6,145.3,0.00,22.8,28.5,"18:30:08",1
"18/08/20","18:50",0.0,28.7,69.9,1001.5,78.1,1.2,3.4,80.4,0.00,22.7,28.3,"18:44:40",1
"18/08/20","19:00",0.0,28.4,71.1,1001.7,120.6,1.2,3.1,96.6,0.00,22.7,28.3,"18:54:32",1
"18/08/20","19:10",0.0,28.3,71.6,1001.9,101.0,1.2,4.1,56.8,0.00,22.7,28.1,"19:04:32",1
"18/08/20","19:20",0.0,28.2,72.5,1002.4,138.2,1.0,2.5,146.7,0.00,22.8,28.1,"19:14:32",1
"18/08/20","19:30",0.0,28.1,72.8,1002.4,100.6,0.8,2.1,121.3,0.00,22.8,28.1,"19:29:04",1
"18/08/20","19:40",0.0,28.0,73.0,1002.4,103.1,0.8,2.9,40.9,0.00,22.7,28.1,"19:36:56",1
"18/08/20","19:50",0.0,28.0,73.5,1002.4,94.9,0.5,1.3,95.9,0.00,22.9,27.8,"19:40:16",1
"18/08/20","20:00",0.0,27.8,74.1,1002.9,10.3,0.8,2.8,62.4,0.00,22.8,27.8,"19:57:28",1
"18/08/20","20:10",0.0,27.6,75.4,1002.6,354.6,0.6,2.0,13.1,0.00,22.9,27.7,"20:01:20",1
"18/08/20","20:20",0.0,27.5,76.3,1002.9,83.3,0.5,1.9,350.5,0.00,23.0,27.7,"20:16:56",1
"18/08/20","20:30",0.0,27.6,76.1,1002.6,52.0,0.8,3.3,353.5,0.00,23.0,27.7,"20:29:28",1
"18/08/20","20:40",0.0,27.5,76.3,1003.1,27.8,0.8,2.4,11.5,0.00,23.0,27.7,"20:33:20",1
"18/08/20","20:50",0.0,27.4,76.7,1003.4,80.6,0.7,2.4,7.3,0.00,23.0,27.6,"20:42:40",1
"18/08/20","21:00",0.0,27.4,77.1,1003.4,87.2,0.7,2.0,106.9,0.00,23.1,27.6,"20:55:12",1
"18/08/20","21:10",0.0,27.6,76.6,1003.6,56.5,1.0,4.0,354.5,0.00,23.2,27.6,"21:03:44",1
"18/08/20","21:20",0.0,27.6,76.2,1003.6,63.6,1.0,2.1,87.8,0.00,23.1,27.3,"21:14:56",1
"18/08/20","21:30",0.0,27.6,76.4,1002.9,40.3,1.0,2.5,57.6,0.00,23.1,27.4,"21:28:40",1
"18/08/20","21:40",0.0,27.5,76.8,1003.4,80.1,0.7,1.7,62.1,0.00,23.1,27.3,"21:33:44",1
"18/08/20","21:50",0.0,27.5,77.0,1003.8,61.5,0.8,2.5,62.1,0.00,23.1,27.2,"21:48:56",1
"18/08/20","22:00",0.0,27.6,77.2,1003.6,90.8,0.6,1.6,81.6,0.00,23.3,27.2,"21:52:32",1
"18/08/20","22:10",0.0,27.6,77.5,1002.9,103.1,1.0,2.2,78.9,0.00,23.3,27.2,"22:05:28",1
"18/08/20","22:20",0.0,27.4,78.0,1003.4,111.0,1.1,2.2,102.4,0.00,23.3,27.3,"22:13:52",1
"18/08/20","22:30",0.0,27.4,78.0,1003.1,130.5,0.8,2.0,94.4,0.00,23.3,27.1,"22:20:08",1
"18/08/20","22:40",0.0,27.4,78.4,1002.9,113.9,1.0,2.2,131.6,0.00,23.3,27.1,"22:36:24",1
"18/08/20","22:50",0.0,27.4,78.4,1002.9,120.8,0.6,2.6,115.4,0.00,23.3,27.2,"22:41:20",1
"18/08/20","23:00",0.0,27.3,78.9,1002.9,112.1,1.0,2.2,104.3,0.00,23.4,27.1,"22:53:28",1
"18/08/20","23:10",0.0,27.3,79.5,1002.6,143.3,0.8,3.9,127.7,0.00,23.5,27.1,"23:00:40",1
"18/08/20","23:20",0.0,27.4,79.2,1002.4,113.9,1.0,2.8,155.8,0.00,23.5,27.0,"23:19:12",1
"18/08/20","23:30",0.0,27.4,79.4,1002.6,120.1,0.8,2.2,214.2,0.00,23.6,27.0,"23:20:56",1
"18/08/20","23:40",0.0,27.4,79.8,1002.6,128.4,0.6,2.0,119.4,0.00,23.6,26.9,"23:34:48",1
"18/08/20","23:50",0.0,27.4,79.8,1002.4,109.0,1.2,2.9,135.8,0.00,23.6,26.8,"23:46:40",1
"18/08/20","24:00",0.0,27.5,79.7,1002.2,112.1,0.8,2.6,95.9,0.00,23.7,26.9,"23:50:02",1
